{"data":{"norad_id":61503,"epoch":"2026-09-19T12:19:38.300736Z","epoch_age_seconds":107132,"freshness":"FRESH","line1":"1 61503U 24181A   26262.51363774 -.00000246  00000+0  00000+0 0  9996","line2":"2 61503   0.0710 350.0015 0001201  89.0295  27.1959  1.00272228  7774","mean_motion":1.00272228,"eccentricity":0.0001201,"inclination_deg":0.071,"raan_deg":350.0015,"arg_perigee_deg":89.0295,"mean_anomaly_deg":27.1959,"bstar":0,"rev_number":777,"period_min":1436.090559392,"perigee_km":35781.406803273,"apogee_km":35791.53474206,"semimajor_km":42164.607772667,"source":"CELESTRAK","updated_at":"2026-09-20T09:00:35.338855Z"}}